[[{"header":{"parameterUnit":"m.s-1","parameterCategory":1,"la1":30.2992,"la2":30.254,"lo1":-89.0895,"lo2":-89.0443,"dy":0.0025,"dx":0.0025,"nx":19,"ny":19,"refTime":"2026-03-19T09:00:00:Z","depth":0,"parameterNumber":2,"parameterNumberName":"U-component_of_WINDS"},"data":[0,0,0,0.632,0.6322,0.6408,0.6409,0.6507,0.6508,0,0,0,0,0,0,0,0,0,0,0,0.6287,0.6287,0.632,0.6322,0.6408,0.6409,0.6507,0.6508,0,0,0,0,0,0,0,0,0,0,0,0.6287,0.6287,0.6288,0.6322,0.6408,0.6409,0.6507,0.6446,0,0,0,0,0,0,0,0,0,0,0.6364,0.6326,0.6287,0.6288,0.6323,0.6408,0.6409,0.6443,0.645,0.6462,0,0.6471,0,0.6491,0.6513,0.6514,0,0,0,0.6328,0.632,0.635,0.6288,0.6323,0.6408,0.6371,0.6447,0.6454,0.6471,0.6473,0.6477,0.6492,0.6514,0.6514,0.6565,0.6565,0,0,0.6323,0.6299,0.6345,0.6355,0.634,0.6368,0.6374,0.6452,0.6452,0.6473,0.6479,0.6494,0.6515,0.6515,0.6565,0.6565,0,0,0,0.6305,0.6295,0.6324,0.635,0.6367,0.6371,0.6377,0.6449,0.646,0.6481,0.6495,0.6515,0.6516,0.6565,0.6565,0.6538,0,0,0,0.6303,0.6285,0.6321,0.6307,0.6365,0.6409,0.6372,0.6455,0.6464,0.6495,0.6515,0.6517,0.6566,0.6565,0.6539,0.653,0,0,0,0.6284,0.6283,0.6292,0.6305,0.6342,0.6408,0.6424,0.6457,0.6473,0.6514,0.6517,0.6566,0.6565,0.654,0.6531,0.6535,0,0,0,0.6257,0.6269,0.6291,0.631,0.6341,0.6391,0.6424,0.6463,0.6495,0.6516,0.6566,0.6565,0.654,0.6532,0.6535,0.6533,0.653,0,0,0.6258,0.6268,0.6281,0.6304,0.6343,0.638,0.6415,0.6469,0.6496,0.654,0.6542,0.6539,0.6531,0.6535,0.6521,0.6518,0,0,0,0.6272,0.6281,0.6297,0.6325,0.6365,0.6398,0.6448,0.6467,0.6506,0.6513,0.6542,0.6539,0.6542,0.6542,0.6539,0.6543,0.6564,0.6564,0.6564,0.6239,0.6271,0.6294,0.6336,0.6363,0.6413,0.6438,0.6473,0.6499,0.6505,0.6519,0.6506,0.6505,0.6504,0.6507,0.6521,0.6521,0.652,0.652,0.6243,0.626,0.6292,0.6326,0.636,0.6389,0.6437,0.6454,0.6485,0.6499,0.6504,0.6516,0.65,0.6504,0.6519,0.6519,0.6519,0.6519,0.6519,0.6224,0.6237,0.626,0.6303,0.6332,0.6375,0.6402,0.6433,0.6462,0.6466,0.6483,0.6484,0.6487,0.6472,0.6472,0.6472,0.6472,0.6472,0.6472,0.6195,0.6221,0.6241,0.6282,0.6303,0.6335,0.6384,0.6406,0.6437,0.6457,0.6458,0.6482,0.6492,0.6493,0.6471,0.6472,0.6472,0.6472,0.6472,0.6186,0.6192,0.6223,0.6244,0.6294,0.632,0.6358,0.6399,0.6421,0.6433,0.6457,0.6459,0.6472,0.6474,0.6475,0.645,0.645,0.645,0.645,0.617,0.6178,0.6215,0.6246,0.628,0.6317,0.6349,0.6386,0.6426,0.6441,0.6449,0.6454,0.6454,0.6467,0.6469,0.6471,0.6445,0.6445,0.6445,0.6165,0.6178,0.62,0.6238,0.6279,0.6314,0.6344,0.6378,0.6424,0.6445,0.6454,0.6454,0.6461,0.6462,0.6484,0.6487,0.649,0,0]},{"header":{"parameterUnit":"m.s-1","parameterCategory":1,"la1":30.2992,"la2":30.254,"lo1":-89.0895,"lo2":-89.0443,"dy":0.0025,"dx":0.0025,"nx":19,"ny":19,"refTime":"2026-03-19T09:00:00:Z","depth":0,"parameterNumber":3,"parameterNumberName":"V-component_of_WINDS"},"data":[0,0,0,3.5352,3.5351,3.5302,3.5302,3.5229,3.5229,0,0,0,0,0,0,0,0,0,0,0,3.5365,3.5364,3.5352,3.5351,3.5302,3.5302,3.523,3.5229,0,0,0,0,0,0,0,0,0,0,0,3.5365,3.5364,3.5364,3.5351,3.5302,3.5302,3.523,3.5269,0,0,0,0,0,0,0,0,0,0,3.5318,3.5329,3.5364,3.5364,3.535,3.5302,3.5302,3.5271,3.5267,3.5249,0,3.5236,0,3.5232,3.5224,3.5223,0,0,0,3.5351,3.5333,3.5322,3.5364,3.535,3.5302,3.5324,3.5269,3.5264,3.5243,3.5235,3.5233,3.523,3.5223,3.5223,3.5128,3.5128,0,0,3.5354,3.5354,3.5325,3.5318,3.533,3.5325,3.5322,3.5266,3.5256,3.5235,3.5231,3.5229,3.5223,3.5222,3.5129,3.5128,0,0,0,3.5361,3.5356,3.5346,3.5321,3.5313,3.5324,3.532,3.5258,3.5255,3.523,3.5228,3.5222,3.5221,3.5129,3.5128,3.5107,0,0,0,3.5363,3.536,3.5347,3.5347,3.5314,3.5286,3.5314,3.5259,3.5253,3.5229,3.5222,3.5221,3.513,3.5129,3.5109,3.5095,0,0,0,3.5368,3.5361,3.5354,3.5347,3.5327,3.5287,3.5281,3.5258,3.5252,3.5223,3.522,3.513,3.5129,3.511,3.5098,3.507,0,0,0,3.5373,3.5335,3.5354,3.5309,3.5327,3.5276,3.5281,3.5242,3.5216,3.5222,3.5129,3.5128,3.5111,3.51,3.5071,3.5045,3.5035,0,0,3.5324,3.5329,3.5302,3.5318,3.5264,3.5283,3.5224,3.5198,3.5193,3.5149,3.5147,3.5108,3.5098,3.507,3.498,3.4972,0,0,0,3.5287,3.5268,3.5253,3.523,3.5211,3.5192,3.5175,3.5165,3.5128,3.5172,3.5091,3.5085,3.5068,3.5055,3.5048,3.5033,3.5123,3.5123,3.5123,3.5216,3.5215,3.517,3.5163,3.5139,3.5123,3.5102,3.5085,3.5088,3.5069,3.5055,3.5002,3.4987,3.4982,3.4965,3.5043,3.5043,3.5043,3.5043,3.5143,3.5114,3.5122,3.5082,3.5079,3.5043,3.5024,3.5028,3.4992,3.5012,3.4997,3.5018,3.4973,3.4958,3.5041,3.5041,3.5042,3.5042,3.5042,3.5095,3.5081,3.5072,3.5037,3.5009,3.5001,3.4967,3.4965,3.4962,3.4948,3.4932,3.4932,3.493,3.4941,3.4941,3.4941,3.494,3.494,3.494,3.5048,3.5038,3.5011,3.4988,3.4972,3.495,3.4933,3.4915,3.4895,3.4896,3.4896,3.4899,3.497,3.4987,3.4937,3.4938,3.4938,3.4938,3.4939,3.497,3.4988,3.4946,3.4931,3.4902,3.4873,3.4872,3.4837,3.4822,3.4804,3.4811,3.4865,3.4868,3.4873,3.4887,3.4814,3.4814,3.4814,3.4814,3.4928,3.4931,3.4887,3.4862,3.4836,3.4831,3.4779,3.4764,3.475,3.474,3.4751,3.4769,3.4775,3.4774,3.4782,3.4794,3.4699,3.4699,3.4699,3.4879,3.4879,3.4838,3.4828,3.4806,3.4785,3.4735,3.4702,3.4689,3.4694,3.4731,3.4736,3.4766,3.4776,3.478,3.4792,3.4815,0,0]}]]